• En España
  • Lista de países
  • Para 7 días
  • Temperatura del agua
  • Mapa Satelital
  • El tiempo en el mapa
  • Informadores
  • user-avatar
    Iniciar sesión

    Tiempo cada hora Pogarino

    Hoy, 25 Septiembre, Martes

    Tiempo Temperatura Precipitaciones Viento Presión Humedad
    00:00 +6°C° 1 mm 4 mps 731 mmHg 94%
    01:00 +6°C° 1 mm 5 mps 731 mmHg 93%
    02:00 +6°C° 1 mm 5 mps 731 mmHg 93%
    03:00 +6°C° 0.6 mm 5 mps 731 mmHg 92%
    04:00 +4°C° 0.6 mm 6 mps 731 mmHg 91%
    05:00 +4°C° 0.6 mm 6 mps 732 mmHg 91%
    06:00 +4°C° 0.2 mm 6 mps 732 mmHg 89%
    07:00 +4°C° 0.2 mm 6 mps 733 mmHg 87%
    08:00 +4°C° 0.2 mm 6 mps 734 mmHg 86%
    09:00 +5°C° 0.1 mm 6 mps 734 mmHg 82%
    10:00 +7°C° 0.1 mm 6 mps 735 mmHg 77%
    11:00 +7°C° 0.1 mm 6 mps 736 mmHg 73%
    12:00 +8°C° 0 mm 6 mps 736 mmHg 70%
    13:00 +8°C° 0 mm 6 mps 737 mmHg 67%
    14:00 +8°C° 0 mm 6 mps 738 mmHg 64%
    15:00 +8°C° 0 mm 6 mps 739 mmHg 66%
    16:00 +7°C° 0 mm 6 mps 740 mmHg 68%
    17:00 +6°C° 0 mm 5 mps 740 mmHg 70%
    18:00 +6°C° 0 mm 5 mps 741 mmHg 72%
    19:00 +5°C° 0 mm 5 mps 742 mmHg 74%
    20:00 +5°C° 0 mm 5 mps 743 mmHg 76%
    21:00 +3°C° 0 mm 5 mps 743 mmHg 76%
    22:00 +4°C° 0 mm 4 mps 744 mmHg 75%
    23:00 +3°C° 0 mm 4 mps 745 mmHg 75%

    Mañana, 26 Septiembre, Miércoles

    Tiempo Temperatura Precipitaciones Viento Presión Humedad
    00:00 +3°C° 0 mm 4 mps 745 mmHg 75%
    01:00 +2°C° 0 mm 3 mps 746 mmHg 75%
    02:00 +1°C° 0 mm 3 mps 746 mmHg 75%
    03:00 +1°C° 0 mm 3 mps 747 mmHg 76%
    04:00 +1°C° 0 mm 3 mps 747 mmHg 77%
    05:00 0°C° 0 mm 3 mps 748 mmHg 78%
    06:00 +1°C° 0 mm 3 mps 748 mmHg 77%
    07:00 +3°C° 0 mm 3 mps 748 mmHg 77%
    08:00 +4°C° 0 mm 4 mps 748 mmHg 76%
    09:00 +5°C° 0 mm 4 mps 748 mmHg 70%
    10:00 +7°C° 0 mm 4 mps 748 mmHg 64%
    11:00 +9°C° 0 mm 5 mps 748 mmHg 58%
    12:00 +9°C° 0 mm 5 mps 747 mmHg 56%
    13:00 +10°C° 0 mm 5 mps 746 mmHg 53%
    14:00 +10°C° 0 mm 5 mps 746 mmHg 51%
    15:00 +9°C° 0 mm 5 mps 745 mmHg 54%
    16:00 +9°C° 0 mm 5 mps 744 mmHg 57%
    17:00 +8°C° 0 mm 5 mps 743 mmHg 61%
    18:00 +7°C° 0.7 mm 6 mps 742 mmHg 69%
    19:00 +6°C° 0.7 mm 7 mps 740 mmHg 77%
    20:00 +5°C° 0.7 mm 7 mps 739 mmHg 86%
    21:00 +5°C° 1.7 mm 7 mps 738 mmHg 87%
    22:00 +5°C° 1.7 mm 8 mps 736 mmHg 88%
    23:00 +5°C° 1.7 mm 8 mps 735 mmHg 89%

    Pasado mañana, 27 Septiembre, Jueves

    Tiempo Temperatura Precipitaciones Viento Presión Humedad
    00:00 +5°C° 1.5 mm 7 mps 734 mmHg 90%
    01:00 +7°C° 1.5 mm 6 mps 733 mmHg 91%
    02:00 +7°C° 1.5 mm 6 mps 733 mmHg 92%
    03:00 +7°C° 0.6 mm 5 mps 733 mmHg 91%
    04:00 +7°C° 0.6 mm 5 mps 732 mmHg 89%
    05:00 +6°C° 0.6 mm 5 mps 732 mmHg 87%
    06:00 +6°C° 0.1 mm 5 mps 733 mmHg 85%
    07:00 +6°C° 0.1 mm 5 mps 733 mmHg 83%
    08:00 +5°C° 0.1 mm 6 mps 733 mmHg 81%
    09:00 +7°C° 0.2 mm 6 mps 734 mmHg 77%
    10:00 +6°C° 0.2 mm 7 mps 734 mmHg 72%
    11:00 +8°C° 0.2 mm 7 mps 734 mmHg 68%
    12:00 +8°C° 0.2 mm 7 mps 734 mmHg 66%
    13:00 +8°C° 0.2 mm 7 mps 735 mmHg 64%
    14:00 +9°C° 0.2 mm 8 mps 735 mmHg 61%
    15:00 +8°C° 0.1 mm 7 mps 735 mmHg 64%
    16:00 +7°C° 0.1 mm 6 mps 736 mmHg 66%
    17:00 +7°C° 0.1 mm 5 mps 736 mmHg 69%
    18:00 +6°C° 0 mm 5 mps 736 mmHg 71%
    19:00 +5°C° 0 mm 4 mps 737 mmHg 74%
    20:00 +5°C° 0 mm 4 mps 737 mmHg 76%
    21:00 +5°C° 0 mm 4 mps 737 mmHg 77%
    22:00 +4°C° 0 mm 4 mps 737 mmHg 78%
    23:00 +4°C° 0 mm 4 mps 737 mmHg 79%

    28 Septiembre, Viernes

    Tiempo Temperatura Precipitaciones Viento Presión Humedad
    00:00 +4°C° 0 mm 4 mps 737 mmHg 81%
    01:00 +3°C° 0 mm 3 mps 737 mmHg 83%
    02:00 +3°C° 0 mm 3 mps 737 mmHg 86%
    03:00 +4°C° 0.6 mm 2 mps 736 mmHg 88%
    04:00 +4°C° 0.6 mm 2 mps 735 mmHg 90%
    05:00 +4°C° 0.6 mm 2 mps 735 mmHg 92%
    06:00 +4°C° 2 mm 2 mps 734 mmHg 93%
    07:00 +4°C° 2 mm 2 mps 733 mmHg 93%
    08:00 +4°C° 2 mm 2 mps 731 mmHg 93%
    09:00 +3°C° 0.6 mm 3 mps 732 mmHg 92%
    10:00 +4°C° 0.6 mm 3 mps 732 mmHg 91%
    11:00 +4°C° 0.6 mm 3 mps 733 mmHg 90%
    12:00 +5°C° 0.2 mm 3 mps 734 mmHg 86%
    13:00 +5°C° 0.2 mm 4 mps 735 mmHg 81%
    14:00 +6°C° 0.2 mm 4 mps 736 mmHg 77%
    15:00 +5°C° 0.1 mm 4 mps 737 mmHg 78%
    16:00 +4°C° 0.1 mm 3 mps 738 mmHg 79%
    17:00 +4°C° 0.1 mm 3 mps 739 mmHg 81%
    18:00 +3°C° 0 mm 3 mps 739 mmHg 82%
    19:00 +2°C° 0 mm 3 mps 740 mmHg 84%
    20:00 +2°C° 0 mm 2 mps 741 mmHg 86%
    21:00 +2°C° 0 mm 2 mps 741 mmHg 86%
    22:00 +1°C° 0 mm 2 mps 741 mmHg 87%
    23:00 +1°C° 0 mm 2 mps 742 mmHg 88%

    29 Septiembre, Sábado

    Tiempo Temperatura Precipitaciones Viento Presión Humedad
    00:00 +1°C° 0.2 mm 2 mps 742 mmHg 88%
    01:00 +2°C° 0.2 mm 2 mps 742 mmHg 88%
    02:00 +2°C° 0.2 mm 2 mps 742 mmHg 88%
    03:00 +2°C° 0.5 mm 2 mps 743 mmHg 89%
    04:00 +4°C° 0.5 mm 1 mps 743 mmHg 91%
    05:00 +4°C° 0.5 mm 1 mps 743 mmHg 92%
    06:00 +3°C° 0.1 mm 2 mps 744 mmHg 89%
    07:00 +3°C° 0.1 mm 2 mps 744 mmHg 85%
    08:00 +3°C° 0.1 mm 2 mps 745 mmHg 82%
    09:00 +4°C° 0 mm 2 mps 745 mmHg 75%
    10:00 +5°C° 0 mm 2 mps 746 mmHg 67%
    11:00 +6°C° 0 mm 2 mps 746 mmHg 60%
    12:00 +5°C° 0 mm 3 mps 746 mmHg 58%
    13:00 +7°C° 0 mm 3 mps 747 mmHg 56%
    14:00 +7°C° 0 mm 3 mps 747 mmHg 54%
    15:00 +6°C° 0 mm 2 mps 747 mmHg 60%
    16:00 +5°C° 0 mm 2 mps 747 mmHg 67%
    17:00 +5°C° 0 mm 1 mps 748 mmHg 74%
    18:00 +4°C° 0 mm 1 mps 748 mmHg 77%
    19:00 +3°C° 0 mm 1 mps 748 mmHg 81%
    20:00 +3°C° 0 mm 1 mps 749 mmHg 85%
    21:00 +1°C° 0 mm 2 mps 749 mmHg 86%
    22:00 +1°C° 0 mm 2 mps 749 mmHg 87%
    23:00 +1°C° 0 mm 2 mps 749 mmHg 88%

    30 Septiembre, Domingo

    Tiempo Temperatura Precipitaciones Viento Presión Humedad
    00:00 +1°C° 0 mm 2 mps 749 mmHg 88%
    01:00 +1°C° 0 mm 2 mps 749 mmHg 88%
    02:00 +1°C° 0 mm 2 mps 749 mmHg 87%
    03:00 0°C° 0 mm 3 mps 749 mmHg 87%
    04:00 0°C° 0 mm 3 mps 749 mmHg 87%
    05:00 0°C° 0 mm 3 mps 749 mmHg 87%
    06:00 +1°C° 0 mm 3 mps 749 mmHg 83%
    07:00 +2°C° 0 mm 3 mps 749 mmHg 78%
    08:00 +3°C° 0 mm 4 mps 749 mmHg 74%
    09:00 +4°C° 0 mm 4 mps 748 mmHg 70%
    10:00 +5°C° 0 mm 4 mps 748 mmHg 66%
    11:00 +7°C° 0 mm 4 mps 748 mmHg 62%
    12:00 +7°C° 0 mm 4 mps 748 mmHg 60%
    13:00 +7°C° 0 mm 4 mps 747 mmHg 58%
    14:00 +8°C° 0 mm 5 mps 747 mmHg 57%
    15:00 +7°C° 0 mm 4 mps 746 mmHg 60%
    16:00 +6°C° 0 mm 4 mps 746 mmHg 62%
    17:00 +5°C° 0 mm 3 mps 746 mmHg 65%
    18:00 +4°C° 0 mm 4 mps 745 mmHg 66%
    19:00 +4°C° 0 mm 4 mps 745 mmHg 68%
    20:00 +3°C° 0 mm 4 mps 745 mmHg 69%
    21:00 +3°C° 0 mm 4 mps 745 mmHg 71%
    22:00 +3°C° 0 mm 4 mps 744 mmHg 74%
    23:00 +3°C° 0 mm 4 mps 744 mmHg 76%
    Mostrar más